Grand Marais, MN

3:57 AM CST on November 14, 2019 (GMT -0600)
Grand Marais

Weather History for KGNA - September, 2019

Change the Weather History Date:

Sunday, September 8, 2019

  Actual Average (KCKC) Record (KCKC)
Temperature  
Mean Temperature 52 °F -  
Max Temperature 55 °F 64 °F 80 °F (2002)
Min Temperature 48 °F 46 °F 35 °F (2005)
Degree Days  
Heating Degree Days 14    
Growing Degree Days 2 (Base 50)    
Moisture  
Dew Point 45 °F    
Average Humidity 79    
Maximum Humidity 93    
Minimum Humidity 72    
Precipitation  
Precipitation 0.00 in - - ()
Sea Level Pressure  
Sea Level Pressure 30.24 in    
Wind  
Wind Speed 4 mph (NE)    
Max Wind Speed 10 mph    
Max Gust Speed -    
Averages and records for this station are not official NWS values.
T = Trace of Precipitation, MM = Missing Value Source: NWS Daily Summary

Daily Weather History Graph

Daily Weather History Graph

Search for Another Location

Airport or City:

Astronomy

Sep. 08, 2019 Rise Set
Actual Time 6:28 AM CDT 7:28 PM CDT
Civil Twilight 5:57 AM CDT 7:59 PM CDT
Nautical Twilight 5:19 AM CDT 8:37 PM CDT
Astronomical Twilight 4:39 AM CDT 9:17 PM CDT
Moon 4:58 PM CDT (9/8) 12:47 AM CDT (9/8)
Length of Visible Light 14h 02m
Length of Day
12h 59m
Waxing Gibbous, 75% of the Moon is Illuminated
Sep 8
Waxing Gibbous
Sep 13
Full
Sep 21
Last Quarter
Sep 28
New
Oct 5
First Quarter

Hourly Weather History & Observations

Time (CDT) Temp. Dew Point Humidity Pressure Visibility Wind Dir Wind Speed Gust Speed Precip Events Conditions
12:56 AM 50.0 °F 48.0 °F 93% 30.19 in - Calm Calm - N/A   Unknown
1:56 AM 51.1 °F 48.0 °F 89% 30.19 in - Calm Calm - N/A   Unknown
2:56 AM 53.1 °F 48.0 °F 83% 30.19 in - Variable 3.5 mph - N/A   Unknown
3:56 AM 53.1 °F 46.0 °F 77% 30.20 in - NE 4.6 mph - N/A   Unknown
4:56 AM 50.0 °F 45.0 °F 83% 30.23 in - ENE 3.5 mph - N/A   Unknown
5:56 AM 52.0 °F 46.9 °F 83% 30.23 in - NE 3.5 mph - N/A   Unknown
6:56 AM 52.0 °F 46.0 °F 80% 30.25 in - NE 5.8 mph - N/A   Unknown
7:56 AM 53.1 °F 46.9 °F 80% 30.26 in - ENE 6.9 mph - N/A   Unknown
8:56 AM 53.1 °F 46.0 °F 77% 30.27 in - ENE 8.1 mph - N/A   Unknown
9:56 AM 51.1 °F 45.0 °F 80% 30.27 in - ENE 10.4 mph - N/A   Unknown
10:56 AM 52.0 °F 45.0 °F 77% 30.27 in - ENE 8.1 mph - N/A   Unknown
11:56 AM 52.0 °F 44.1 °F 74% 30.27 in - ENE 8.1 mph - N/A   Unknown
12:56 PM 55.0 °F 46.0 °F 72% 30.26 in - ENE 6.9 mph - N/A   Unknown
1:56 PM 54.0 °F 46.0 °F 75% 30.26 in - ENE 5.8 mph - N/A   Unknown
2:56 PM 53.1 °F 45.0 °F 74% 30.25 in - ENE 6.9 mph - N/A   Unknown
3:56 PM 55.0 °F 46.0 °F 72% 30.25 in - ENE 5.8 mph - N/A   Unknown
4:56 PM 52.0 °F 44.1 °F 74% 30.25 in - ENE 6.9 mph - N/A   Unknown
5:56 PM 52.0 °F 44.1 °F 74% 30.24 in - ENE 4.6 mph - N/A   Unknown
6:56 PM 51.1 °F 44.1 °F 77% 30.24 in - ENE 8.1 mph - N/A   Unknown
7:56 PM 48.9 °F 43.0 °F 80% 30.23 in - NNE 4.6 mph - N/A   Unknown
8:56 PM 48.9 °F 43.0 °F 80% 30.24 in - NNE 4.6 mph - N/A   Unknown
9:56 PM 48.9 °F 43.0 °F 80% 30.24 in - NNE 4.6 mph - N/A   Unknown
10:56 PM 48.9 °F 43.0 °F 80% 30.24 in - Variable 4.6 mph - N/A   Unknown
11:56 PM 50.0 °F 45.0 °F 83% 30.24 in - NNE 3.5 mph - N/A   Unknown